Year,Month,Day,Hour,Minute,Value (Times are PST for temperature in C)
2015,03,30,10,18,11.60
2015,03,30,10,19,11.70
2015,03,30,10,20,11.80
2015,03,30,10,21,11.90
2015,03,30,10,22,12.00
2015,03,30,10,23,12.00
2015,03,30,10,24,11.90
2015,03,30,10,25,11.90
2015,03,30,10,26,11.80
2015,03,30,10,27,11.80
2015,03,30,10,28,11.80
2015,03,30,10,29,11.70
2015,03,30,10,30,11.70
2015,03,30,10,31,11.70
2015,03,30,10,32,11.70
2015,03,30,10,33,11.70
2015,03,30,10,34,11.70
2015,03,30,10,35,11.70
2015,03,30,10,36,11.70
2015,03,30,10,37,11.70
2015,03,30,10,38,11.70
2015,03,30,10,39,11.60
2015,03,30,10,40,11.60
2015,03,30,10,41,11.60
2015,03,30,10,42,11.60
2015,03,30,10,43,11.60
2015,03,30,10,44,11.60
2015,03,30,10,45,11.60
2015,03,30,10,46,11.60
2015,03,30,10,47,11.50
2015,03,30,10,48,11.60
2015,03,30,10,49,11.60
2015,03,30,10,50,11.60
2015,03,30,10,51,11.60
2015,03,30,10,52,11.60
2015,03,30,10,53,11.60
2015,03,30,10,54,11.60
2015,03,30,10,55,11.70
2015,03,30,10,56,11.70
2015,03,30,10,57,11.70
2015,03,30,10,58,11.70
2015,03,30,10,59,11.70
2015,03,30,11,00,11.70
2015,03,30,11,01,11.70
2015,03,30,11,02,11.80
2015,03,30,11,03,11.80
2015,03,30,11,04,11.80
2015,03,30,11,05,11.80
2015,03,30,11,06,11.80
2015,03,30,11,07,11.80
2015,03,30,11,08,11.80
2015,03,30,11,09,11.80
2015,03,30,11,10,11.80
2015,03,30,11,11,11.80
2015,03,30,11,12,11.80
2015,03,30,11,13,11.80
2015,03,30,11,14,11.80
2015,03,30,11,15,11.90
2015,03,30,11,16,11.90
2015,03,30,11,17,11.90
2015,03,30,11,18,11.90
2015,03,30,11,19,11.90
2015,03,30,11,20,11.90
2015,03,30,11,21,11.90
2015,03,30,11,22,11.90
2015,03,30,11,23,12.00
2015,03,30,11,24,12.00
2015,03,30,11,25,12.00
2015,03,30,11,26,12.10
2015,03,30,11,27,12.10
2015,03,30,11,28,12.20
2015,03,30,11,29,12.20
2015,03,30,11,30,12.30
2015,03,30,11,31,12.40
2015,03,30,11,32,12.50
2015,03,30,11,33,12.60
2015,03,30,11,34,12.70
2015,03,30,11,35,12.80
2015,03,30,11,36,12.80
2015,03,30,11,37,12.90
2015,03,30,11,38,12.90
2015,03,30,11,39,12.90
2015,03,30,11,40,12.90
2015,03,30,11,41,12.90
2015,03,30,11,42,12.80
2015,03,30,11,43,12.80
2015,03,30,11,44,12.80
2015,03,30,11,45,12.90
2015,03,30,11,46,12.90
2015,03,30,11,47,12.90
2015,03,30,11,48,12.90
2015,03,30,11,49,12.90
2015,03,30,11,50,13.00
2015,03,30,11,51,13.00
2015,03,30,11,52,13.10
2015,03,30,11,53,13.20
2015,03,30,11,54,13.30
2015,03,30,11,55,13.40
2015,03,30,11,56,13.50
2015,03,30,11,57,13.70
2015,03,30,11,58,13.90
2015,03,30,11,59,13.90
2015,03,30,12,00,14.00
2015,03,30,12,01,14.10
2015,03,30,12,02,14.20
2015,03,30,12,03,14.30
2015,03,30,12,04,14.40
2015,03,30,12,05,14.50
2015,03,30,12,06,14.50
2015,03,30,12,07,14.60
2015,03,30,12,08,14.60
2015,03,30,12,09,14.50
2015,03,30,12,10,14.60
2015,03,30,12,11,14.60
2015,03,30,12,12,14.70
2015,03,30,12,13,14.70
2015,03,30,12,14,14.80
2015,03,30,12,15,14.90
2015,03,30,12,16,14.90
2015,03,30,12,17,14.90
2015,03,30,12,18,14.90
2015,03,30,12,19,14.80
2015,03,30,12,20,14.80
2015,03,30,12,21,14.90
2015,03,30,12,22,14.90
2015,03,30,12,23,14.90
2015,03,30,12,24,15.00
2015,03,30,12,25,15.00
2015,03,30,12,26,15.00
2015,03,30,12,27,15.00
2015,03,30,12,28,15.00
2015,03,30,12,29,15.00
2015,03,30,12,30,15.20
2015,03,30,12,31,15.10
2015,03,30,12,32,15.20
2015,03,30,12,33,15.20
2015,03,30,12,34,15.10
2015,03,30,12,35,15.10
2015,03,30,12,36,15.20
2015,03,30,12,37,15.20
2015,03,30,12,38,15.30
2015,03,30,12,39,15.30
2015,03,30,12,40,15.20
2015,03,30,12,41,15.30
2015,03,30,12,42,15.30
2015,03,30,12,43,15.30
2015,03,30,12,44,15.20
2015,03,30,12,45,15.20
2015,03,30,12,46,15.30
2015,03,30,12,47,15.30
2015,03,30,12,48,15.30
2015,03,30,12,49,15.40
2015,03,30,12,50,15.40
2015,03,30,12,51,15.30
2015,03,30,12,52,15.20
2015,03,30,12,53,15.30
2015,03,30,12,54,15.40
2015,03,30,12,55,15.60
2015,03,30,12,56,15.80
2015,03,30,12,57,16.00
2015,03,30,12,58,16.10
2015,03,30,12,59,16.10
2015,03,30,13,00,16.10
2015,03,30,13,01,16.10
2015,03,30,13,02,16.20
2015,03,30,13,03,16.20
2015,03,30,13,04,16.20
2015,03,30,13,05,16.20
2015,03,30,13,06,16.30
2015,03,30,13,07,16.40
2015,03,30,13,08,16.50
2015,03,30,13,09,16.60
2015,03,30,13,10,16.60
2015,03,30,13,11,16.80
2015,03,30,13,12,16.80
2015,03,30,13,13,16.90
2015,03,30,13,14,16.90
2015,03,30,13,15,16.80
2015,03,30,13,16,16.70
2015,03,30,13,17,16.70
2015,03,30,13,18,16.70
2015,03,30,13,19,16.70
2015,03,30,13,20,16.70
2015,03,30,13,21,16.50
2015,03,30,13,22,16.30
2015,03,30,13,23,16.20
2015,03,30,13,24,16.10
2015,03,30,13,25,15.90
2015,03,30,13,26,15.90
2015,03,30,13,27,15.90
2015,03,30,13,28,15.80
2015,03,30,13,29,15.80
2015,03,30,13,30,15.80
2015,03,30,13,31,15.90
2015,03,30,13,32,15.90
2015,03,30,13,33,15.90
2015,03,30,13,34,16.00
2015,03,30,13,35,16.10
2015,03,30,13,36,16.10
2015,03,30,13,37,15.90
2015,03,30,13,38,15.90
2015,03,30,13,39,15.80
2015,03,30,13,40,15.80
2015,03,30,13,41,15.80
2015,03,30,13,42,15.70
2015,03,30,13,43,15.60
2015,03,30,13,44,15.60
2015,03,30,13,45,15.60
2015,03,30,13,46,15.60
2015,03,30,13,47,15.60
2015,03,30,13,48,15.70
2015,03,30,13,49,15.70
2015,03,30,13,50,15.80
2015,03,30,13,51,15.90
2015,03,30,13,52,16.00
2015,03,30,13,53,16.10
2015,03,30,13,54,16.20
2015,03,30,13,55,16.30
2015,03,30,13,56,16.40
2015,03,30,13,57,16.40
2015,03,30,13,58,16.50
2015,03,30,13,59,16.60
2015,03,30,14,00,16.80
2015,03,30,14,01,17.00
2015,03,30,14,02,17.20
2015,03,30,14,03,17.20
2015,03,30,14,04,17.20
2015,03,30,14,05,17.00
2015,03,30,14,06,16.90
2015,03,30,14,07,16.80
2015,03,30,14,08,16.80
2015,03,30,14,09,16.80
2015,03,30,14,10,16.90
2015,03,30,14,11,16.90
2015,03,30,14,12,16.90
2015,03,30,14,13,16.90
2015,03,30,14,14,17.00
2015,03,30,14,15,17.10
2015,03,30,14,16,17.00
2015,03,30,14,17,16.90
2015,03,30,14,18,16.80
2015,03,30,14,19,16.90
2015,03,30,14,20,17.00
2015,03,30,14,21,17.10
2015,03,30,14,22,17.10
2015,03,30,14,23,17.10
2015,03,30,14,24,17.00
2015,03,30,14,25,17.00
2015,03,30,14,26,17.00
2015,03,30,14,27,17.10
2015,03,30,14,28,17.10
2015,03,30,14,29,17.20
2015,03,30,14,30,17.20
2015,03,30,14,31,17.20
2015,03,30,14,32,17.20
2015,03,30,14,33,17.20
2015,03,30,14,34,17.20
2015,03,30,14,35,17.20
2015,03,30,14,36,17.20
2015,03,30,14,37,17.20
2015,03,30,14,38,17.20
2015,03,30,14,39,17.10
2015,03,30,14,40,17.20
2015,03,30,14,41,17.20
2015,03,30,14,42,17.20
2015,03,30,14,43,17.20
2015,03,30,14,44,17.10
2015,03,30,14,45,17.00
2015,03,30,14,46,17.00
2015,03,30,14,47,16.90
2015,03,30,14,48,16.80
2015,03,30,14,49,16.80
2015,03,30,14,50,16.70
2015,03,30,14,51,16.70
2015,03,30,14,52,16.70
2015,03,30,14,53,16.70
2015,03,30,14,54,16.60
2015,03,30,14,55,16.60
2015,03,30,14,56,16.60
2015,03,30,14,57,16.60
2015,03,30,14,58,16.60
2015,03,30,14,59,16.60
2015,03,30,15,00,16.60
2015,03,30,15,01,16.60
2015,03,30,15,02,16.70
2015,03,30,15,03,16.70
2015,03,30,15,04,16.70
2015,03,30,15,05,16.80
2015,03,30,15,06,16.90
2015,03,30,15,07,16.90
2015,03,30,15,08,16.90
2015,03,30,15,09,17.00
2015,03,30,15,10,17.00
2015,03,30,15,11,16.90
2015,03,30,15,12,16.90
2015,03,30,15,13,16.90
2015,03,30,15,14,16.80
2015,03,30,15,15,16.80
2015,03,30,15,16,16.70
2015,03,30,15,17,16.70
2015,03,30,15,18,16.80
2015,03,30,15,19,16.70
2015,03,30,15,20,16.70
2015,03,30,15,21,16.70
2015,03,30,15,22,16.80
2015,03,30,15,23,16.80
2015,03,30,15,24,17.00
2015,03,30,15,25,17.00
2015,03,30,15,26,17.00
2015,03,30,15,27,17.00
2015,03,30,15,28,17.00
2015,03,30,15,29,17.00
2015,03,30,15,30,17.00
2015,03,30,15,31,16.90
2015,03,30,15,32,16.80
2015,03,30,15,33,16.80
2015,03,30,15,34,16.90
2015,03,30,15,35,16.90
2015,03,30,15,36,16.90
2015,03,30,15,37,16.90
2015,03,30,15,38,16.90
2015,03,30,15,39,16.90
2015,03,30,15,40,16.70
2015,03,30,15,41,16.60
2015,03,30,15,42,16.50
2015,03,30,15,43,16.50
2015,03,30,15,44,16.50
2015,03,30,15,45,16.60
2015,03,30,15,46,16.70
2015,03,30,15,47,16.80
2015,03,30,15,48,16.80
2015,03,30,15,49,16.70
2015,03,30,15,50,16.60
2015,03,30,15,51,16.60
2015,03,30,15,52,16.50
2015,03,30,15,53,16.50
2015,03,30,15,54,16.50
2015,03,30,15,55,16.40
2015,03,30,15,56,16.40
2015,03,30,15,57,16.40
2015,03,30,15,58,16.40
2015,03,30,15,59,16.40
2015,03,30,16,00,16.40
2015,03,30,16,01,16.30
2015,03,30,16,02,16.30
2015,03,30,16,03,16.40
2015,03,30,16,04,16.40
2015,03,30,16,05,16.50
2015,03,30,16,06,16.50
2015,03,30,16,07,16.50
2015,03,30,16,08,16.50
2015,03,30,16,09,16.50
2015,03,30,16,10,16.60
2015,03,30,16,11,16.60
2015,03,30,16,12,16.60
2015,03,30,16,13,16.60
2015,03,30,16,14,16.60
2015,03,30,16,15,16.70
2015,03,30,16,16,16.70
2015,03,30,16,17,16.80
2015,03,30,16,18,16.80
2015,03,30,16,19,16.70
2015,03,30,16,20,16.70
2015,03,30,16,21,16.70
2015,03,30,16,22,16.60
2015,03,30,16,23,16.60
2015,03,30,16,24,16.60
2015,03,30,16,25,16.60
2015,03,30,16,26,16.50
2015,03,30,16,27,16.40
2015,03,30,16,28,16.40
2015,03,30,16,29,16.30
2015,03,30,16,30,16.30
2015,03,30,16,31,16.30
2015,03,30,16,32,16.40
2015,03,30,16,33,16.40
2015,03,30,16,34,16.50
2015,03,30,16,35,16.50
2015,03,30,16,36,16.60
2015,03,30,16,37,16.60
2015,03,30,16,38,16.60
2015,03,30,16,39,16.60
2015,03,30,16,40,16.50
2015,03,30,16,41,16.40
2015,03,30,16,42,16.30
2015,03,30,16,43,16.30
2015,03,30,16,44,16.40
2015,03,30,16,45,16.50
2015,03,30,16,46,16.60
2015,03,30,16,47,16.50
2015,03,30,16,48,16.50
2015,03,30,16,49,16.40
2015,03,30,16,50,16.40
2015,03,30,16,51,16.40
2015,03,30,16,52,16.30
2015,03,30,16,53,16.30
2015,03,30,16,54,16.30
2015,03,30,16,55,16.20
2015,03,30,16,56,16.20
2015,03,30,16,57,16.10
2015,03,30,16,58,16.10
2015,03,30,16,59,16.00
2015,03,30,17,00,16.00
2015,03,30,17,01,15.90
2015,03,30,17,02,15.90
2015,03,30,17,03,15.90
2015,03,30,17,04,15.90
2015,03,30,17,05,15.90
2015,03,30,17,06,15.80
2015,03,30,17,07,15.80
2015,03,30,17,08,15.80
2015,03,30,17,09,15.80
2015,03,30,17,10,15.80
2015,03,30,17,11,15.80
2015,03,30,17,12,15.80
2015,03,30,17,13,15.80
2015,03,30,17,14,15.80
2015,03,30,17,15,15.80
2015,03,30,17,16,15.80
2015,03,30,17,17,15.80
2015,03,30,17,18,15.90
2015,03,30,17,19,15.80
2015,03,30,17,20,15.80
2015,03,30,17,21,15.80
2015,03,30,17,22,15.80
2015,03,30,17,23,15.80
2015,03,30,17,24,15.80
2015,03,30,17,25,15.80
2015,03,30,17,26,15.70
2015,03,30,17,27,15.70
2015,03,30,17,28,15.60
2015,03,30,17,29,15.60
2015,03,30,17,30,15.50
2015,03,30,17,31,15.50
2015,03,30,17,32,15.40
2015,03,30,17,33,15.40
2015,03,30,17,34,15.40
2015,03,30,17,35,15.40
2015,03,30,17,36,15.40
2015,03,30,17,37,15.40
2015,03,30,17,38,15.40
2015,03,30,17,39,15.40
2015,03,30,17,40,15.40
2015,03,30,17,41,15.40
2015,03,30,17,42,15.40
2015,03,30,17,43,15.40
2015,03,30,17,44,15.30
2015,03,30,17,45,15.30
2015,03,30,17,46,15.30
2015,03,30,17,47,15.30
2015,03,30,17,48,15.30
2015,03,30,17,49,15.30
2015,03,30,17,50,15.30
2015,03,30,17,51,15.20
2015,03,30,17,52,15.20
2015,03,30,17,53,15.20
2015,03,30,17,54,15.20
2015,03,30,17,55,15.20
2015,03,30,17,56,15.20
2015,03,30,17,57,15.20
2015,03,30,17,58,15.20
2015,03,30,17,59,15.20
2015,03,30,18,00,15.20
2015,03,30,18,01,15.20
2015,03,30,18,02,15.20
2015,03,30,18,03,15.20
2015,03,30,18,04,15.20
2015,03,30,18,05,15.20
2015,03,30,18,06,15.20
2015,03,30,18,07,15.20
2015,03,30,18,08,15.10
2015,03,30,18,09,15.10
2015,03,30,18,10,15.10
2015,03,30,18,11,15.10
2015,03,30,18,12,15.10
2015,03,30,18,13,15.10
2015,03,30,18,14,15.10
2015,03,30,18,15,15.10
2015,03,30,18,16,15.10
2015,03,30,18,17,15.10
2015,03,30,18,18,15.10
2015,03,30,18,19,15.10
2015,03,30,18,20,15.10
